08-07-2023, 00:00:05,    122,    1.6,   19.1,   0.00,   0.00, 1010.4,   48.4, -999.0
08-07-2023, 00:00:15,    122,    1.9,   19.1,   0.00,   0.00, 1010.4,   48.5, -999.0
08-07-2023, 00:00:25,    122,    1.1,   19.2,   0.00,   0.00, 1010.4,   48.5, -999.0
08-07-2023, 00:00:35,    122,    1.0,   19.2,   0.00,   0.00, 1010.3,   48.4, -999.0
08-07-2023, 00:00:45,    122,    0.9,   19.2,   0.00,   0.00, 1010.3,   48.4, -999.0
08-07-2023, 00:00:55,    122,    0.0,   19.1,   0.00,   0.00, 1010.2,   48.1, -999.0
08-07-2023, 00:01:05,    122,    0.7,   19.1,   0.00,   0.00, 1010.3,   48.4, -999.0
08-07-2023, 00:01:15,    122,    1.3,   19.1,   0.00,   0.00, 1010.4,   48.5, -999.0
08-07-2023, 00:01:25,    122,    0.8,   19.1,   0.00,   0.00, 1010.4,   48.5, -999.0
08-07-2023, 00:01:35,    122,    0.0,   19.1,   0.00,   0.00, 1010.2,   48.1, -999.0
08-07-2023, 00:01:45,    122,    0.0,   19.1,   0.00,   0.00, 1010.2,   48.1, -999.0
08-07-2023, 00:01:55,    122,    0.1,   19.1,   0.00,   0.00, 1010.3,   48.2, -999.0
08-07-2023, 00:02:05,    122,    0.5,   19.1,   0.00,   0.00, 1010.3,   48.5, -999.0
08-07-2023, 00:02:15,    122,    0.5,   19.1,   0.00,   0.00, 1010.3,   48.4, -999.0
08-07-2023, 00:02:25,    122,    0.1,   19.1,   0.00,   0.00, 1010.3,   48.4, -999.0
08-07-2023, 00:02:35,    121,    1.2,   19.0,   0.00,   0.00, 1010.3,   48.4, -999.0
08-07-2023, 00:02:45,    122,    1.5,   19.1,   0.00,   0.00, 1010.4,   48.6, -999.0
08-07-2023, 00:02:55,    120,    2.1,   19.1,   0.00,   0.00, 1010.4,   48.4, -999.0
08-07-2023, 00:03:04,    122,    1.3,   19.0,   0.00,   0.00, 1010.4,   48.7, -999.0
08-07-2023, 00:03:15,    122,    1.1,   19.1,   0.00,   0.00, 1010.4,   48.5, -999.0
08-07-2023, 00:03:25,    121,    1.7,   19.1,   0.00,   0.00, 1010.3,   48.5, -999.0
08-07-2023, 00:03:34,     87,    2.0,   19.1,   0.00,   0.00, 1010.4,   48.5, -999.0
08-07-2023, 00:03:44,     87,    1.3,   19.1,   0.00,   0.00, 1010.3,   48.6, -999.0
08-07-2023, 00:03:55,     87,    1.3,   19.1,   0.00,   0.00, 1010.3,   48.5, -999.0
08-07-2023, 00:04:04,     87,    0.5,   19.1,   0.00,   0.00, 1010.3,   48.7, -999.0
08-07-2023, 00:04:14,     86,    0.1,   19.1,   0.00,   0.00, 1010.3,   48.7, -999.0
08-07-2023, 00:04:24,     86,    0.0,   19.0,   0.00,   0.00, 1010.2,   48.4, -999.0
08-07-2023, 00:04:34,    110,    1.1,   19.0,   0.00,   0.00, 1010.3,   48.6, -999.0
08-07-2023, 00:04:44,    110,    0.7,   19.1,   0.00,   0.00, 1010.3,   48.8, -999.0
08-07-2023, 00:04:54,    109,    0.4,   19.1,   0.00,   0.00, 1010.3,   48.7, -999.0
08-07-2023, 00:05:04,    110,    0.1,   19.0,   0.00,   0.00, 1010.3,   48.6, -999.0
08-07-2023, 00:05:14,    110,    0.7,   19.1,   0.00,   0.00, 1010.3,   48.7, -999.0
08-07-2023, 00:05:24,    109,    0.4,   19.1,   0.00,   0.00, 1010.3,   48.7, -999.0
08-07-2023, 00:05:34,    109,    0.0,   19.0,   0.00,   0.00, 1010.2,   48.5, -999.0
08-07-2023, 00:05:44,    108,    1.1,   19.1,   0.00,   0.00, 1010.3,   48.7, -999.0
08-07-2023, 00:05:54,    109,    1.1,   19.1,   0.00,   0.00, 1010.3,   48.8, -999.0
08-07-2023, 00:06:04,    110,    0.7,   19.1,   0.00,   0.00, 1010.4,   48.7, -999.0
08-07-2023, 00:06:14,    123,    1.2,   19.2,   0.00,   0.00, 1010.3,   48.7, -999.0
08-07-2023, 00:06:24,    122,    0.0,   19.0,   0.00,   0.00, 1010.2,   48.4, -999.0
08-07-2023, 00:06:34,    122,    0.0,   19.0,   0.00,   0.00, 1010.2,   48.4, -999.0
08-07-2023, 00:06:44,    122,    0.0,   19.0,   0.00,   0.00, 1010.2,   48.5, -999.0
08-07-2023, 00:06:54,    122,    0.0,   19.0,   0.00,   0.00, 1010.2,   48.5, -999.0
08-07-2023, 00:07:04,    122,    0.9,   19.1,   0.00,   0.00, 1010.3,   48.7, -999.0
08-07-2023, 00:07:14,    122,    1.3,   19.1,   0.00,   0.00, 1010.3,   48.9, -999.0
08-07-2023, 00:07:24,    122,    0.0,   19.0,   0.00,   0.00, 1010.2,   48.5, -999.0
08-07-2023, 00:07:34,    128,    0.0,   19.0,   0.00,   0.00, 1010.2,   48.5, -999.0
08-07-2023, 00:07:44,    122,    0.0,   19.0,   0.00,   0.00, 1010.2,   48.5, -999.0
08-07-2023, 00:07:54,    173,    0.9,   19.0,   0.00,   0.00, 1010.3,   48.8, -999.0
08-07-2023, 00:08:04,     97,    1.6,   19.0,   0.00,   0.00, 1010.3,   48.9, -999.0
08-07-2023, 00:08:14,    117,    2.7,   19.0,   0.00,   0.00, 1010.3,   49.0, -999.0
08-07-2023, 00:08:24,    156,    2.0,   19.1,   0.00,   0.00, 1010.3,   48.9, -999.0
08-07-2023, 00:08:34,    116,    2.5,   19.1,   0.00,   0.00, 1010.3,   48.8, -999.0
08-07-2023, 00:08:44,    136,    2.4,   19.0,   0.00,   0.00, 1010.3,   48.9, -999.0
08-07-2023, 00:08:54,    136,    2.6,   19.1,   0.00,   0.00, 1010.3,   49.0, -999.0
08-07-2023, 00:09:04,    136,    0.7,   19.1,   0.00,   0.00, 1010.4,   48.9, -999.0
08-07-2023, 00:09:14,    135,    1.5,   19.1,   0.00,   0.00, 1010.4,   48.9, -999.0
08-07-2023, 00:09:23,    135,    1.5,   19.1,   0.00,   0.00, 1010.4,   49.0, -999.0
08-07-2023, 00:09:34,    135,    1.1,   19.1,   0.00,   0.00, 1010.3,   48.9, -999.0
08-07-2023, 00:09:44,    134,    1.7,   19.0,   0.00,   0.00, 1010.4,   48.9, -999.0
08-07-2023, 00:09:53,    134,    0.5,   19.0,   0.00,   0.00, 1010.3,   49.0, -999.0
08-07-2023, 00:10:03,    134,    0.1,   19.0,   0.00,   0.00, 1010.2,   48.6, -999.0
08-07-2023, 00:10:14,    133,    1.0,   19.0,   0.00,   0.00, 1010.3,   48.9, -999.0
08-07-2023, 00:10:23,    134,    1.8,   19.1,   0.00,   0.00, 1010.4,   49.0, -999.0
08-07-2023, 00:10:33,    133,    1.0,   19.1,   0.00,   0.00, 1010.3,   49.1, -999.0
08-07-2023, 00:10:43,    133,    1.3,   19.1,   0.00,   0.00, 1010.4,   49.0, -999.0
08-07-2023, 00:10:53,    133,    1.0,   19.0,   0.00,   0.00, 1010.3,   49.1, -999.0
08-07-2023, 00:11:03,    133,    0.4,   19.0,   0.00,   0.00, 1010.3,   49.0, -999.0
08-07-2023, 00:11:13,    133,    1.0,   19.0,   0.00,   0.00, 1010.3,   49.0, -999.0
08-07-2023, 00:11:23,    133,    0.3,   19.1,   0.00,   0.00, 1010.3,   49.0, -999.0
08-07-2023, 00:11:33,    133,    1.4,   19.0,   0.00,   0.00, 1010.3,   49.2, -999.0
08-07-2023, 00:11:43,    132,    0.3,   19.0,   0.00,   0.00, 1010.3,   49.0, -999.0
08-07-2023, 00:11:53,    133,    0.1,   18.9,   0.00,   0.00, 1010.3,   48.8, -999.0
08-07-2023, 00:12:03,    133,    0.2,   19.0,   0.00,   0.00, 1010.3,   49.0, -999.0
08-07-2023, 00:12:13,    133,    0.4,   19.0,   0.00,   0.00, 1010.3,   49.3, -999.0
08-07-2023, 00:12:23,    133,    0.5,   18.9,   0.00,   0.00, 1010.3,   49.2, -999.0
08-07-2023, 00:12:33,    105,    2.1,   18.9,   0.00,   0.00, 1010.4,   49.1, -999.0
08-07-2023, 00:12:43,    113,    1.3,   18.9,   0.00,   0.00, 1010.3,   49.3, -999.0
08-07-2023, 00:12:53,    113,    0.4,   18.9,   0.00,   0.00, 1010.3,   49.3, -999.0
08-07-2023, 00:13:03,    113,    0.8,   18.9,   0.00,   0.00, 1010.3,   49.2, -999.0
08-07-2023, 00:13:13,    114,    0.6,   19.0,   0.00,   0.00, 1010.3,   49.2, -999.0
08-07-2023, 00:13:23,    111,    0.0,   18.8,   0.00,   0.00, 1010.2,   49.1, -999.0
08-07-2023, 00:13:33,    113,    0.0,   18.8,   0.00,   0.00, 1010.2,   48.8, -999.0
08-07-2023, 00:13:43,    113,    0.0,   18.9,   0.00,   0.00, 1010.2,   48.9, -999.0
08-07-2023, 00:13:53,    113,    0.5,   18.9,   0.00,   0.00, 1010.3,   49.3, -999.0
08-07-2023, 00:14:03,    121,    1.2,   18.9,   0.00,   0.00, 1010.3,   49.4, -999.0
08-07-2023, 00:14:13,    130,    0.7,   18.9,   0.00,   0.00, 1010.3,   49.5, -999.0
08-07-2023, 00:14:23,    130,    0.0,   18.9,   0.00,   0.00, 1010.2,   49.0, -999.0
08-07-2023, 00:14:33,    122,    0.9,   18.8,   0.00,   0.00, 1010.3,   49.3, -999.0
08-07-2023, 00:14:43,    122,    1.4,   18.9,   0.00,   0.00, 1010.4,   49.5, -999.0
08-07-2023, 00:14:53,    122,    0.6,   18.9,   0.00,   0.00, 1010.3,   49.5, -999.0
08-07-2023, 00:15:03,    121,    0.1,   18.8,   0.00,   0.00, 1010.3,   49.2, -999.0
08-07-2023, 00:15:12,    122,    0.0,   18.8,   0.00,   0.00, 1010.3,   49.3, -999.0
08-07-2023, 00:15:23,    122,    0.3,   18.7,   0.00,   0.00, 1010.3,   49.4, -999.0
08-07-2023, 00:15:33,    122,    0.5,   18.9,   0.00,   0.00, 1010.3,   49.4, -999.0
08-07-2023, 00:15:42,    122,    1.7,   18.9,   0.00,   0.00, 1010.3,   49.6, -999.0
08-07-2023, 00:15:53,    122,    0.6,   18.9,   0.00,   0.00, 1010.3,   49.6, -999.0
08-07-2023, 00:16:03,    122,    0.5,   18.9,   0.00,   0.00, 1010.3,   49.7, -999.0
08-07-2023, 00:16:12,    121,    0.2,   18.9,   0.00,   0.00, 1010.2,   49.3, -999.0
08-07-2023, 00:16:22,    122,    0.1,   18.8,   0.00,   0.00, 1010.2,   49.2, -999.0
08-07-2023, 00:16:33,    122,    0.7,   18.9,   0.00,   0.00, 1010.3,   49.5, -999.0
08-07-2023, 00:16:42,    122,    0.4,   18.9,   0.00,   0.00, 1010.3,   49.5, -999.0
08-07-2023, 00:16:52,    122,    0.5,   18.9,   0.00,   0.00, 1010.3,   49.4, -999.0
08-07-2023, 00:17:02,    121,    0.0,   18.9,   0.00,   0.00, 1010.2,   49.4, -999.0
08-07-2023, 00:17:13,    122,    1.4,   18.8,   0.00,   0.00, 1010.3,   49.5, -999.0
08-07-2023, 00:17:22,    122,    0.6,   18.8,   0.00,   0.00, 1010.3,   49.6, -999.0
08-07-2023, 00:17:32,    122,    1.1,   18.9,   0.00,   0.00, 1010.3,   49.5, -999.0
08-07-2023, 00:17:42,    122,    0.5,   18.9,   0.00,   0.00, 1010.3,   49.6, -999.0
08-07-2023, 00:17:52,    122,    0.2,   18.8,   0.00,   0.00, 1010.2,   49.5, -999.0
08-07-2023, 00:18:02,    122,    0.5,   19.0,   0.00,   0.00, 1010.3,   49.7, -999.0
08-07-2023, 00:18:12,    122,    0.7,   19.0,   0.00,   0.00, 1010.3,   49.8, -999.0
08-07-2023, 00:18:22,    122,    0.8,   18.9,   0.00,   0.00, 1010.2,   49.6, -999.0
08-07-2023, 00:18:32,    122,    1.1,   18.8,   0.00,   0.00, 1010.3,   49.7, -999.0
08-07-2023, 00:18:42,    122,    0.6,   18.9,   0.00,   0.00, 1010.3,   49.7, -999.0
08-07-2023, 00:18:52,    121,    0.0,   18.8,   0.00,   0.00, 1010.2,   49.5, -999.0
08-07-2023, 00:19:02,    121,    0.0,   18.8,   0.00,   0.00, 1010.1,   49.5, -999.0
08-07-2023, 00:19:12,    121,    0.0,   18.7,   0.00,   0.00, 1010.1,   49.4, -999.0
08-07-2023, 00:19:22,    122,    0.0,   18.7,   0.00,   0.00, 1010.2,   49.4, -999.0
08-07-2023, 00:19:32,    121,    0.0,   18.8,   0.00,   0.00, 1010.1,   49.4, -999.0
08-07-2023, 00:19:42,    121,    0.0,   18.8,   0.00,   0.00, 1010.1,   49.6, -999.0
08-07-2023, 00:19:52,    121,    0.1,   18.8,   0.00,   0.00, 1010.2,   49.7, -999.0
08-07-2023, 00:20:02,    121,    1.2,   18.8,   0.00,   0.00, 1010.2,   49.9, -999.0
08-07-2023, 00:20:12,    121,    0.2,   18.8,   0.00,   0.00, 1010.2,   49.6, -999.0
08-07-2023, 00:20:22,    121,    0.1,   18.8,   0.00,   0.00, 1010.2,   49.7, -999.0
08-07-2023, 00:20:32,    121,    0.5,   18.8,   0.00,   0.00, 1010.2,   50.0, -999.0
08-07-2023, 00:20:42,    122,    0.3,   18.8,   0.00,   0.00, 1010.2,   49.9, -999.0
08-07-2023, 00:20:52,    122,    0.9,   18.8,   0.00,   0.00, 1010.2,   50.0, -999.0
08-07-2023, 00:21:02,    121,    0.9,   18.9,   0.00,   0.00, 1010.2,   50.0, -999.0
08-07-2023, 00:21:12,    120,    1.5,   18.9,   0.00,   0.00, 1010.2,   49.9, -999.0
08-07-2023, 00:21:22,    121,    1.4,   18.8,   0.00,   0.00, 1010.2,   50.0, -999.0
08-07-2023, 00:21:31,    120,    1.1,   18.8,   0.00,   0.00, 1010.2,   49.9, -999.0
08-07-2023, 00:21:42,    121,    0.0,   18.8,   0.00,   0.00, 1010.1,   49.7, -999.0
08-07-2023, 00:21:52,    121,    1.2,   18.7,   0.00,   0.00, 1010.2,   50.0, -999.0
08-07-2023, 00:22:02,    120,    0.9,   18.9,   0.00,   0.00, 1010.2,   49.9, -999.0
08-07-2023, 00:22:11,    120,    1.5,   18.9,   0.00,   0.00, 1010.2,   49.9, -999.0
08-07-2023, 00:22:22,    121,    1.2,   18.9,   0.00,   0.00, 1010.2,   50.0, -999.0
08-07-2023, 00:22:31,    121,    1.1,   18.9,   0.00,   0.00, 1010.2,   50.0, -999.0
08-07-2023, 00:22:41,    121,    1.0,   18.8,   0.00,   0.00, 1010.2,   49.9, -999.0
08-07-2023, 00:22:52,    121,    0.0,   18.8,   0.00,   0.00, 1010.1,   49.8, -999.0
08-07-2023, 00:23:01,    121,    0.0,   18.7,   0.00,   0.00, 1010.1,   49.6, -999.0
08-07-2023, 00:23:11,    120,    0.2,   18.8,   0.00,   0.00, 1010.1,   49.8, -999.0
08-07-2023, 00:23:21,    120,    0.0,   18.8,   0.00,   0.00, 1010.1,   49.6, -999.0
08-07-2023, 00:23:32,    120,    0.0,   18.7,   0.00,   0.00, 1010.1,   49.7, -999.0
08-07-2023, 00:23:41,    120,    0.0,   18.8,   0.00,   0.00, 1010.1,   49.6, -999.0
08-07-2023, 00:23:51,    120,    0.0,   18.8,   0.00,   0.00, 1010.0,   49.7, -999.0
08-07-2023, 00:24:01,    121,    0.0,   18.7,   0.00,   0.00, 1010.1,   49.8, -999.0
08-07-2023, 00:24:11,    120,    0.1,   18.8,   0.00,   0.00, 1010.1,   49.7, -999.0
08-07-2023, 00:24:21,    121,    0.9,   18.8,   0.00,   0.00, 1010.2,   50.0, -999.0
08-07-2023, 00:24:31,    116,    1.6,   18.8,   0.00,   0.00, 1010.2,   50.0, -999.0
08-07-2023, 00:24:41,    116,    0.3,   18.9,   0.00,   0.00, 1010.1,   50.0, -999.0
08-07-2023, 00:24:51,    115,    0.1,   18.8,   0.00,   0.00, 1010.1,   49.9, -999.0
08-07-2023, 00:25:01,    116,    0.0,   18.8,   0.00,   0.00, 1010.1,   49.7, -999.0
08-07-2023, 00:25:11,    116,    0.0,   18.8,   0.00,   0.00, 1010.0,   49.7, -999.0
08-07-2023, 00:25:21,    116,    0.6,   18.9,   0.00,   0.00, 1010.2,   50.1, -999.0
08-07-2023, 00:25:31,    115,    0.3,   18.8,   0.00,   0.00, 1010.1,   50.1, -999.0
08-07-2023, 00:25:41,    116,    0.0,   18.8,   0.00,   0.00, 1010.1,   49.7, -999.0
08-07-2023, 00:25:51,    116,    0.0,   18.8,   0.00,   0.00, 1010.0,   49.8, -999.0
08-07-2023, 00:26:01,    116,    0.0,   18.7,   0.00,   0.00, 1010.0,   49.8, -999.0
08-07-2023, 00:26:11,    116,    0.0,   18.8,   0.00,   0.00, 1010.1,   49.8, -999.0
08-07-2023, 00:26:21,    116,    0.8,   18.9,   0.00,   0.00, 1010.2,   50.1, -999.0
08-07-2023, 00:26:31,    116,    1.3,   18.8,   0.00,   0.00, 1010.2,   50.1, -999.0
08-07-2023, 00:26:41,    116,    1.2,   18.9,   0.00,   0.00, 1010.2,   50.2, -999.0
08-07-2023, 00:26:51,    116,    0.6,   18.8,   0.00,   0.00, 1010.2,   50.3, -999.0
08-07-2023, 00:27:01,    116,    0.0,   18.7,   0.00,   0.00, 1010.0,   49.9, -999.0
08-07-2023, 00:27:11,    116,    0.1,   18.7,   0.00,   0.00, 1010.1,   50.2, -999.0
08-07-2023, 00:27:21,    116,    0.7,   18.8,   0.00,   0.00, 1010.1,   50.3, -999.0
08-07-2023, 00:27:31,    115,    0.3,   18.8,   0.00,   0.00, 1010.1,   50.1, -999.0
08-07-2023, 00:27:41,    115,    0.4,   18.8,   0.00,   0.00, 1010.1,   50.1, -999.0
08-07-2023, 00:27:50,    115,    0.0,   18.7,   0.00,   0.00, 1010.1,   49.9, -999.0
08-07-2023, 00:28:01,    115,    0.2,   18.8,   0.00,   0.00, 1010.1,   50.1, -999.0
08-07-2023, 00:28:11,    116,    0.2,   18.7,   0.00,   0.00, 1010.1,   50.1, -999.0
08-07-2023, 00:28:20,    116,    0.1,   18.7,   0.00,   0.00, 1010.1,   50.0, -999.0
08-07-2023, 00:28:30,    116,    0.4,   18.8,   0.00,   0.00, 1010.2,   50.3, -999.0
08-07-2023, 00:28:41,    116,    0.0,   18.8,   0.00,   0.00, 1010.0,   50.0, -999.0
08-07-2023, 00:28:51,    142,    1.3,   18.7,   0.00,   0.00, 1010.2,   50.3, -999.0
08-07-2023, 00:29:00,    148,    1.5,   18.8,   0.00,   0.00, 1010.2,   50.5, -999.0
08-07-2023, 00:29:10,    143,    1.5,   18.8,   0.00,   0.00, 1010.2,   50.4, -999.0
08-07-2023, 00:29:21,    141,    1.2,   18.7,   0.00,   0.00, 1010.2,   50.4, -999.0
08-07-2023, 00:29:30,    142,    0.2,   18.7,   0.00,   0.00, 1010.1,   50.3, -999.0
08-07-2023, 00:29:40,    141,    0.0,   18.7,   0.00,   0.00, 1010.0,   50.0, -999.0
08-07-2023, 00:29:50,    142,    0.1,   18.6,   0.00,   0.00, 1010.1,   50.2, -999.0
08-07-2023, 00:30:00,    142,    0.9,   18.7,   0.00,   0.00, 1010.2,   50.5, -999.0
08-07-2023, 00:30:10,    141,    0.6,   18.7,   0.00,   0.00, 1010.2,   50.6, -999.0
08-07-2023, 00:30:20,    142,    0.3,   18.7,   0.00,   0.00, 1010.1,   50.4, -999.0
08-07-2023, 00:30:30,    142,    0.1,   18.7,   0.00,   0.00, 1010.1,   50.4, -999.0
08-07-2023, 00:30:40,    141,    0.1,   18.7,   0.00,   0.00, 1010.1,   50.5, -999.0
08-07-2023, 00:30:50,    141,    0.0,   18.7,   0.00,   0.00, 1010.0,   50.3, -999.0
08-07-2023, 00:31:00,    141,    0.0,   18.6,   0.00,   0.00, 1010.0,   50.2, -999.0
08-07-2023, 00:31:10,    141,    0.3,   18.7,   0.00,   0.00, 1010.1,   50.3, -999.0
08-07-2023, 00:31:20,    141,    0.4,   18.7,   0.00,   0.00, 1010.1,   50.4, -999.0
08-07-2023, 00:31:30,    141,    0.0,   18.7,   0.00,   0.00, 1010.1,   50.2, -999.0
08-07-2023, 00:31:40,    141,    0.0,   18.7,   0.00,   0.00, 1010.0,   50.1, -999.0
08-07-2023, 00:31:50,    141,    0.0,   18.6,   0.00,   0.00, 1010.0,   50.3, -999.0
08-07-2023, 00:32:00,    142,    0.0,   18.6,   0.00,   0.00, 1010.0,   50.3, -999.0
08-07-2023, 00:32:10,    141,    0.3,   18.7,   0.00,   0.00, 1010.1,   50.7, -999.0
08-07-2023, 00:32:20,    141,    0.2,   18.6,   0.00,   0.00, 1010.1,   50.6, -999.0
08-07-2023, 00:32:30,    141,    0.0,   18.6,   0.00,   0.00, 1010.0,   50.5, -999.0
08-07-2023, 00:32:40,    141,    0.0,   18.6,   0.00,   0.00, 1010.1,   50.4, -999.0
08-07-2023, 00:32:51,    125,    1.2,   18.6,   0.00,   0.00, 1010.2,   50.8, -999.0
08-07-2023, 00:33:00,    125,    0.8,   18.8,   0.00,   0.00, 1010.2,   50.8, -999.0
08-07-2023, 00:33:10,    125,    0.5,   18.6,   0.00,   0.00, 1010.1,   50.7, -999.0
08-07-2023, 00:33:20,    125,    0.8,   18.7,   0.00,   0.00, 1010.1,   50.7, -999.0
08-07-2023, 00:33:30,    125,    0.1,   18.7,   0.00,   0.00, 1010.1,   50.5, -999.0
08-07-2023, 00:33:39,    124,    0.2,   18.7,   0.00,   0.00, 1010.1,   50.7, -999.0
08-07-2023, 00:33:50,    124,    0.0,   18.6,   0.00,   0.00, 1010.0,   50.4, -999.0
08-07-2023, 00:34:00,    125,    0.0,   18.7,   0.00,   0.00, 1010.0,   50.5, -999.0
08-07-2023, 00:34:09,    124,    0.0,   18.7,   0.00,   0.00, 1010.0,   50.4, -999.0
08-07-2023, 00:34:19,    125,    0.0,   18.7,   0.00,   0.00, 1010.0,   50.4, -999.0
08-07-2023, 00:34:30,    124,    0.0,   18.7,   0.00,   0.00, 1010.0,   50.5, -999.0
08-07-2023, 00:34:40,    124,    0.0,   18.7,   0.00,   0.00, 1010.0,   50.4, -999.0
08-07-2023, 00:34:49,    124,    0.0,   18.7,   0.00,   0.00, 1010.0,   50.5, -999.0
08-07-2023, 00:35:00,    124,    0.0,   18.7,   0.00,   0.00, 1010.0,   50.4, -999.0
08-07-2023, 00:35:10,    124,    0.0,   18.6,   0.00,   0.00, 1010.0,   50.6, -999.0
08-07-2023, 00:35:19,    122,    0.0,   18.6,   0.00,   0.00, 1010.0,   50.6, -999.0
08-07-2023, 00:35:29,    125,    0.7,   18.7,   0.00,   0.00, 1010.2,   50.8, -999.0
08-07-2023, 00:35:40,    124,    1.0,   18.7,   0.00,   0.00, 1010.2,   50.9, -999.0
08-07-2023, 00:35:49,    124,    0.3,   18.7,   0.00,   0.00, 1010.1,   50.9, -999.0
08-07-2023, 00:35:59,    124,    0.2,   18.6,   0.00,   0.00, 1010.1,   50.8, -999.0
08-07-2023, 00:36:09,    124,    0.5,   18.7,   0.00,   0.00, 1010.1,   50.9, -999.0
08-07-2023, 00:36:19,    124,    1.1,   18.7,   0.00,   0.00, 1010.2,   50.9, -999.0
08-07-2023, 00:36:29,    124,    0.3,   18.7,   0.00,   0.00, 1010.1,   50.8, -999.0
08-07-2023, 00:36:39,    124,    0.3,   18.6,   0.00,   0.00, 1010.1,   50.9, -999.0
08-07-2023, 00:36:49,    125,    1.0,   18.7,   0.00,   0.00, 1010.2,   51.0, -999.0
08-07-2023, 00:36:59,    125,    0.3,   18.7,   0.00,   0.00, 1010.1,   50.9, -999.0
08-07-2023, 00:37:09,    124,    0.1,   18.6,   0.00,   0.00, 1010.1,   50.8, -999.0
08-07-2023, 00:37:19,    124,    0.0,   18.5,   0.00,   0.00, 1010.0,   50.7, -999.0
08-07-2023, 00:37:29,    124,    0.0,   18.6,   0.00,   0.00, 1010.0,   50.7, -999.0
08-07-2023, 00:37:39,    125,    0.0,   18.5,   0.00,   0.00, 1010.0,   50.7, -999.0
08-07-2023, 00:37:49,    124,    0.1,   18.7,   0.00,   0.00, 1010.1,   50.8, -999.0
08-07-2023, 00:37:59,    125,    0.0,   18.6,   0.00,   0.00, 1010.0,   50.7, -999.0
08-07-2023, 00:38:09,    124,    0.0,   18.5,   0.00,   0.00, 1010.0,   50.8, -999.0
08-07-2023, 00:38:19,    125,    0.1,   18.5,   0.00,   0.00, 1010.0,   50.7, -999.0
08-07-2023, 00:38:29,    124,    0.6,   18.6,   0.00,   0.00, 1010.1,   51.1, -999.0
08-07-2023, 00:38:39,    124,    0.2,   18.6,   0.00,   0.00, 1010.1,   51.1, -999.0
08-07-2023, 00:38:49,    124,    1.0,   18.6,   0.00,   0.00, 1010.1,   51.1, -999.0
08-07-2023, 00:38:59,    124,    0.7,   18.7,   0.00,   0.00, 1010.1,   51.1, -999.0
08-07-2023, 00:39:09,    124,    0.0,   18.6,   0.00,   0.00, 1010.0,   50.9, -999.0
08-07-2023, 00:39:19,    124,    0.4,   18.7,   0.00,   0.00, 1010.1,   51.1, -999.0
08-07-2023, 00:39:29,    124,    0.4,   18.7,   0.00,   0.00, 1010.1,   51.1, -999.0
08-07-2023, 00:39:39,    124,    1.1,   18.6,   0.00,   0.00, 1010.1,   51.0, -999.0
08-07-2023, 00:39:49,    124,    1.8,   18.7,   0.00,   0.00, 1010.1,   51.2, -999.0
08-07-2023, 00:39:58,    124,    1.2,   18.6,   0.00,   0.00, 1010.1,   51.2, -999.0
08-07-2023, 00:40:09,    124,    2.7,   18.7,   0.00,   0.00, 1010.1,   51.4, -999.0
08-07-2023, 00:40:19,    124,    1.0,   18.7,   0.00,   0.00, 1010.1,   51.3, -999.0
08-07-2023, 00:40:29,    122,    0.8,   18.7,   0.00,   0.00, 1010.1,   51.2, -999.0
08-07-2023, 00:40:38,    124,    0.9,   18.7,   0.00,   0.00, 1010.1,   51.2, -999.0
08-07-2023, 00:40:49,    124,    0.6,   18.7,   0.00,   0.00, 1010.1,   51.2, -999.0
08-07-2023, 00:40:59,    124,    0.0,   18.6,   0.00,   0.00, 1010.0,   50.9, -999.0
08-07-2023, 00:41:08,    124,    0.0,   18.6,   0.00,   0.00, 1010.0,   50.9, -999.0
08-07-2023, 00:41:18,    124,    0.0,   18.5,   0.00,   0.00, 1010.0,   50.9, -999.0
08-07-2023, 00:41:29,    123,    0.0,   18.6,   0.00,   0.00, 1009.9,   50.9, -999.0
08-07-2023, 00:41:38,    124,    0.0,   18.5,   0.00,   0.00, 1010.0,   51.0, -999.0
08-07-2023, 00:41:48,    124,    0.0,   18.6,   0.00,   0.00, 1009.9,   50.9, -999.0
08-07-2023, 00:41:59,    124,    0.0,   18.6,   0.00,   0.00, 1009.9,   51.0, -999.0
08-07-2023, 00:42:08,    124,    0.0,   18.5,   0.00,   0.00, 1009.9,   50.9, -999.0
08-07-2023, 00:42:18,    124,    0.0,   18.6,   0.00,   0.00, 1010.0,   50.9, -999.0
08-07-2023, 00:42:28,    124,    0.0,   18.6,   0.00,   0.00, 1010.0,   50.9, -999.0
08-07-2023, 00:42:39,    124,    0.0,   18.6,   0.00,   0.00, 1010.0,   50.9, -999.0
08-07-2023, 00:42:48,    124,    0.0,   18.6,   0.00,   0.00, 1010.0,   50.9, -999.0
08-07-2023, 00:42:58,    124,    0.3,   18.5,   0.00,   0.00, 1010.0,   51.0, -999.0
08-07-2023, 00:43:08,    125,    2.4,   18.6,   0.00,   0.00, 1010.1,   51.4, -999.0
08-07-2023, 00:43:18,    125,    0.9,   18.7,   0.00,   0.00, 1010.0,   51.4, -999.0
08-07-2023, 00:43:28,    124,    1.5,   18.7,   0.00,   0.00, 1010.1,   51.4, -999.0
08-07-2023, 00:43:38,    127,    1.9,   18.7,   0.00,   0.00, 1010.1,   51.3, -999.0
08-07-2023, 00:43:48,    136,    1.5,   18.8,   0.00,   0.00, 1010.1,   51.4, -999.0
08-07-2023, 00:43:58,    129,    1.4,   18.6,   0.00,   0.00, 1010.1,   51.4, -999.0
08-07-2023, 00:44:08,    130,    1.6,   18.7,   0.00,   0.00, 1010.1,   51.4, -999.0
08-07-2023, 00:44:18,    130,    0.8,   18.7,   0.00,   0.00, 1010.0,   51.2, -999.0
08-07-2023, 00:44:28,    130,    1.3,   18.8,   0.00,   0.00, 1010.1,   51.3, -999.0
08-07-2023, 00:44:38,    130,    1.0,   18.7,   0.00,   0.00, 1010.1,   51.3, -999.0
08-07-2023, 00:44:48,    129,    0.3,   18.7,   0.00,   0.00, 1010.0,   51.4, -999.0
08-07-2023, 00:44:58,    129,    1.6,   18.7,   0.00,   0.00, 1010.0,   51.5, -999.0
08-07-2023, 00:45:08,    129,    1.2,   18.7,   0.00,   0.00, 1010.0,   51.4, -999.0
08-07-2023, 00:45:18,    129,    1.3,   18.7,   0.00,   0.00, 1010.0,   51.5, -999.0
08-07-2023, 00:45:28,    128,    0.6,   18.7,   0.00,   0.00, 1010.0,   51.5, -999.0
08-07-2023, 00:45:38,    129,    0.7,   18.6,   0.00,   0.00, 1010.0,   51.4, -999.0
08-07-2023, 00:45:48,    128,    0.0,   18.6,   0.00,   0.00, 1009.9,   51.0, -999.0
08-07-2023, 00:45:58,    128,    0.4,   18.7,   0.00,   0.00, 1010.0,   51.4, -999.0
08-07-2023, 00:46:08,    129,    1.4,   18.6,   0.00,   0.00, 1010.0,   51.5, -999.0
08-07-2023, 00:46:18,    128,    1.7,   18.6,   0.00,   0.00, 1010.0,   51.5, -999.0
08-07-2023, 00:46:27,    128,    1.2,   18.6,   0.00,   0.00, 1010.0,   51.6, -999.0
08-07-2023, 00:46:38,    128,    0.4,   18.6,   0.00,   0.00, 1009.9,   51.4, -999.0
08-07-2023, 00:46:48,    129,    0.3,   18.6,   0.00,   0.00, 1009.9,   51.3, -999.0